,,PA_Meas_PMT16A,,PR_Meas_QMR101_102,,RH_Meas_QMH101,,SR_Meas_QMS101,,TA_Meas_QMH101,,GenWind,,GenWind,
time,status,PA,status,PR,status,RH,status,SR,status,TA,status,DirAvg,status,SpdAvg,
2014-05-18, 06:35:04,VALID,917.284,VALID,0,VALID,96.6039,VALID,22.4552,VALID,20.0343,VALID,202,VALID,0.838672,
2014-05-18, 06:36:04,VALID,917.292,VALID,0,VALID,96.5811,VALID,25.2487,VALID,20.0343,VALID,202,VALID,0.747656,
2014-05-18, 06:37:04,VALID,917.314,VALID,0,VALID,96.6039,VALID,29.9761,VALID,20.0343,VALID,202,VALID,0.766406,
2014-05-18, 06:38:04,VALID,917.283,VALID,0,VALID,96.6115,VALID,37.497,VALID,20.0343,VALID,202,VALID,0.684766,
2014-05-18, 06:39:04,VALID,917.323,VALID,0,VALID,96.6039,VALID,43.5137,VALID,20.0148,VALID,202,VALID,0.469922,
2014-05-18, 06:40:04,VALID,917.314,VALID,0,VALID,96.6115,VALID,48.2411,VALID,20.0733,VALID,202,VALID,0.544141,
2014-05-18, 06:41:04,VALID,917.323,VALID,0,VALID,96.6115,VALID,51.7866,VALID,20.0928,VALID,202,VALID,0.748438,
2014-05-18, 06:42:04,VALID,917.343,VALID,0,VALID,96.6039,VALID,55.2248,VALID,20.1334,VALID,202,VALID,0.717188,
2014-05-18, 06:43:04,VALID,917.342,VALID,0,VALID,96.6115,VALID,56.514,VALID,20.1318,VALID,202,VALID,0.5125,
2014-05-18, 06:44:04,VALID,917.318,VALID,0,VALID,96.6039,VALID,55.5471,VALID,20.1724,VALID,202,VALID,0,
2014-05-18, 06:45:04,VALID,917.384,VALID,0,VALID,96.6039,VALID,54.4727,VALID,20.1708,VALID,202,VALID,0.235547,
2014-05-18, 06:46:04,VALID,917.349,VALID,0,VALID,96.6115,VALID,54.4727,VALID,20.2098,VALID,202,VALID,0.248047,
2014-05-18, 06:47:04,VALID,917.356,VALID,0,VALID,96.6115,VALID,54.5801,VALID,20.2489,VALID,202,VALID,0.0785156,
2014-05-18, 06:48:04,VALID,917.36,VALID,0,VALID,96.6039,VALID,53.9355,VALID,20.2684,VALID,202,VALID,0,
2014-05-18, 06:49:04,VALID,917.379,VALID,0,VALID,96.6115,VALID,54.2578,VALID,20.2879,VALID,202,VALID,0,
2014-05-18, 06:50:04,VALID,917.409,VALID,0,VALID,96.6192,VALID,54.4727,VALID,20.2894,VALID,202,VALID,0.451562,
2014-05-18, 06:51:04,VALID,917.413,VALID,0,VALID,96.6039,VALID,55.762,VALID,20.2879,VALID,202,VALID,0.327734,
2014-05-18, 06:52:04,VALID,917.411,VALID,0,VALID,96.6039,VALID,57.3736,VALID,20.3074,VALID,202,VALID,0.366406,
2014-05-18, 06:53:04,VALID,917.445,VALID,0,VALID,96.5963,VALID,58.5554,VALID,20.2879,VALID,202,VALID,0.207813,
2014-05-18, 06:54:04,VALID,917.439,VALID,0,VALID,96.5734,VALID,60.2745,VALID,20.2879,VALID,202,VALID,0.540625,
2014-05-18, 06:55:04,VALID,917.482,VALID,0,VALID,96.5734,VALID,61.6712,VALID,20.2879,VALID,202,VALID,0.0925781,
2014-05-18, 06:56:04,VALID,917.47,VALID,0,VALID,96.5963,VALID,63.068,VALID,20.2879,VALID,202,VALID,0,
2014-05-18, 06:57:04,VALID,917.518,VALID,0,VALID,96.5582,VALID,64.6796,VALID,20.2879,VALID,202,VALID,0.234766,
2014-05-18, 06:58:04,VALID,917.52,VALID,0,VALID,96.5658,VALID,66.5061,VALID,20.2684,VALID,202,VALID,0.534766,
2014-05-18, 06:59:04,VALID,917.579,VALID,0,VALID,96.5658,VALID,69.407,VALID,20.2684,VALID,202,VALID,0.545703,
2014-05-18, 07:00:04,VALID,917.602,VALID,0,VALID,96.5353,VALID,71.2335,VALID,20.2879,VALID,202,VALID,0.742188,
2014-05-18, 07:01:04,VALID,917.605,VALID,0,VALID,96.5582,VALID,73.06,VALID,20.3074,VALID,202,VALID,0.535547,
2014-05-18, 07:02:04,VALID,917.634,VALID,0,VALID,96.5353,VALID,73.8121,VALID,20.3074,VALID,202,VALID,0.478906,
2014-05-18, 07:03:04,VALID,917.633,VALID,0,VALID,96.5048,VALID,72.9525,VALID,20.3464,VALID,202,VALID,0.0726563,
2014-05-18, 07:04:04,VALID,917.628,VALID,0,VALID,96.5048,VALID,73.4897,VALID,20.3659,VALID,202,VALID,0,
2014-05-18, 07:05:04,VALID,917.647,VALID,0,VALID,96.4819,VALID,73.5972,VALID,20.3659,VALID,202,VALID,0.668359,
2014-05-18, 07:06:04,VALID,917.65,VALID,0,VALID,96.4972,VALID,74.5642,VALID,20.3854,VALID,202,VALID,0.606641,
2014-05-18, 07:07:04,VALID,917.682,VALID,0,VALID,96.4591,VALID,78.3246,VALID,20.4049,VALID,202,VALID,0.209766,
2014-05-18, 07:08:04,VALID,917.698,VALID,0,VALID,96.4362,VALID,80.4734,VALID,20.4439,VALID,202,VALID,0.305859,
2014-05-18, 07:09:04,VALID,917.712,VALID,0,VALID,96.4362,VALID,80.2585,VALID,20.4439,VALID,202,VALID,0.632031,
2014-05-18, 07:10:04,VALID,917.76,VALID,0,VALID,96.4057,VALID,83.1595,VALID,20.4244,VALID,202,VALID,0.716406,
2014-05-18, 07:11:04,VALID,917.78,VALID,0,VALID,96.3981,VALID,88.4241,VALID,20.4228,VALID,202,VALID,0.210156,
2014-05-18, 07:12:04,VALID,917.776,VALID,0,VALID,96.3752,VALID,90.4654,VALID,20.4439,VALID,202,VALID,0.769531,
2014-05-18, 07:13:04,VALID,917.824,VALID,0,VALID,96.36,VALID,92.7217,VALID,20.4618,VALID,109,VALID,0.905859,
2014-05-18, 07:14:04,VALID,917.843,VALID,0,VALID,96.3447,VALID,97.3417,VALID,20.4439,VALID,106,VALID,0.948438,
2014-05-18, 07:15:04,VALID,917.861,VALID,0,VALID,96.3447,VALID,104.648,VALID,20.4423,VALID,103,VALID,0.566406,
2014-05-18, 07:16:04,VALID,917.88,VALID,0,VALID,96.3219,VALID,106.152,VALID,20.4634,VALID,115,VALID,0.595312,
2014-05-18, 07:17:04,VALID,917.874,VALID,0,VALID,96.3219,VALID,108.838,VALID,20.4813,VALID,116,VALID,0.424219,
2014-05-18, 07:18:04,VALID,917.894,VALID,0,VALID,96.2914,VALID,114.532,VALID,20.5219,VALID,137,VALID,0.852344,
2014-05-18, 07:19:04,VALID,917.905,VALID,0,VALID,96.2914,VALID,123.987,VALID,20.5219,VALID,152,VALID,0.945313,
2014-05-18, 07:20:04,VALID,917.898,VALID,0,VALID,96.2533,VALID,132.582,VALID,20.5009,VALID,120,VALID,1.27344,
2014-05-18, 07:21:04,VALID,917.89,VALID,0,VALID,96.2304,VALID,134.194,VALID,20.5609,VALID,118,VALID,0.778125,
2014-05-18, 07:22:04,VALID,917.918,VALID,0,VALID,96.2151,VALID,134.839,VALID,20.5789,VALID,122,VALID,1.06992,
2014-05-18, 07:23:04,VALID,917.926,VALID,0,VALID,96.2151,VALID,137.417,VALID,20.639,VALID,116,VALID,0.633594,
2014-05-18, 07:24:04,VALID,917.962,VALID,0,VALID,96.2228,VALID,136.128,VALID,20.7365,VALID,116,VALID,0.252734,
2014-05-18, 07:25:04,VALID,917.962,VALID,0,VALID,96.177,VALID,135.054,VALID,20.6975,VALID,117,VALID,0.737891,
2014-05-18, 07:26:04,VALID,918.007,VALID,0,VALID,96.1541,VALID,138.062,VALID,20.7154,VALID,117,VALID,0.740625,
2014-05-18, 07:27:04,VALID,918.011,VALID,0,VALID,96.0627,VALID,139.136,VALID,20.717,VALID,124,VALID,0.522656,
2014-05-18, 07:28:04,VALID,918.037,VALID,0,VALID,96.0627,VALID,137.632,VALID,20.8145,VALID,80,VALID,1.04688,
2014-05-18, 07:29:04,VALID,918.064,VALID,0,VALID,96.0322,VALID,137.31,VALID,20.8535,VALID,106,VALID,0.558203,
2014-05-18, 07:30:04,VALID,918.077,VALID,0,VALID,95.9331,VALID,139.244,VALID,20.7739,VALID,108,VALID,1.04492,
2014-05-18, 07:31:04,VALID,918.096,VALID,0,VALID,95.8492,VALID,144.831,VALID,20.8129,VALID,108,VALID,0.754297,
2014-05-18, 07:32:04,VALID,918.084,VALID,0,VALID,95.7501,VALID,150.203,VALID,20.834,VALID,108,VALID,0.497266,
2014-05-18, 07:33:04,VALID,918.096,VALID,0,VALID,95.7196,VALID,151.707,VALID,20.8925,VALID,108,VALID,0.796094,
2014-05-18, 07:34:04,VALID,918.095,VALID,0,VALID,95.6891,VALID,150.847,VALID,20.9901,VALID,108,VALID,0.10625,
2014-05-18, 07:35:04,VALID,918.099,VALID,0,VALID,95.5976,VALID,146.442,VALID,20.9885,VALID,95,VALID,0.994141,
2014-05-18, 07:36:04,VALID,918.091,VALID,0,VALID,95.4147,VALID,144.401,VALID,21.0486,VALID,95,VALID,0.235547,
2014-05-18, 07:37:04,VALID,918.081,VALID,0,VALID,95.3384,VALID,146.12,VALID,21.1071,VALID,107,VALID,0.459766,
2014-05-18, 07:38:04,VALID,918.109,VALID,0,VALID,95.003,VALID,150.203,VALID,21.0681,VALID,138,VALID,0.902344,
2014-05-18, 07:39:04,VALID,918.069,VALID,0,VALID,94.6218,VALID,154.93,VALID,21.086,VALID,143,VALID,0.744141,
2014-05-18, 07:40:04,VALID,918.094,VALID,0,VALID,94.3093,VALID,159.228,VALID,21.125,VALID,92,VALID,0.755469,
2014-05-18, 07:41:04,VALID,918.115,VALID,0,VALID,93.7299,VALID,164.063,VALID,21.164,VALID,102,VALID,0.626953,
2014-05-18, 07:42:04,VALID,918.115,VALID,0,VALID,93.364,VALID,169.435,VALID,21.2226,VALID,87,VALID,0.476953,
2014-05-18, 07:43:04,VALID,918.124,VALID,0,VALID,93.364,VALID,175.881,VALID,21.3217,VALID,109,VALID,0.268359,
2014-05-18, 07:44:04,VALID,918.105,VALID,0,VALID,92.8532,VALID,182.65,VALID,21.3591,VALID,109,VALID,0.629297,
2014-05-18, 07:45:04,VALID,918.147,VALID,0,VALID,93.0057,VALID,189.096,VALID,21.4177,VALID,109,VALID,0.155078,
2014-05-18, 07:46:04,VALID,918.155,VALID,0,VALID,92.6245,VALID,194.683,VALID,21.5363,VALID,109,VALID,0.328516,
2014-05-18, 07:47:04,VALID,918.173,VALID,0,VALID,92.3958,VALID,199.303,VALID,21.5737,VALID,109,VALID,0,
2014-05-18, 07:48:04,VALID,918.211,VALID,0,VALID,91.946,VALID,202.741,VALID,21.6339,VALID,109,VALID,0.290625,
2014-05-18, 07:49:04,VALID,918.247,VALID,0,VALID,91.4429,VALID,205.857,VALID,21.712,VALID,109,VALID,0.188672,
2014-05-18, 07:50:04,VALID,918.225,VALID,0,VALID,91.1608,VALID,208.866,VALID,21.8095,VALID,109,VALID,0.200781,
2014-05-18, 07:51:04,VALID,918.249,VALID,0,VALID,90.4213,VALID,215.42,VALID,21.8485,VALID,109,VALID,0.341406,
2014-05-18, 07:52:04,VALID,918.293,VALID,0,VALID,89.2321,VALID,210.37,VALID,21.8876,VALID,109,VALID,0.00703125,
2014-05-18, 07:53:04,VALID,918.274,VALID,0,VALID,88.485,VALID,211.337,VALID,21.9266,VALID,109,VALID,0.317578,
2014-05-18, 07:54:04,VALID,918.302,VALID,0,VALID,88.6375,VALID,213.056,VALID,21.9656,VALID,109,VALID,0.433203,
2014-05-18, 07:55:04,VALID,918.345,VALID,0,VALID,87.593,VALID,214.99,VALID,21.9444,VALID,109,VALID,0.267188,
2014-05-18, 07:56:04,VALID,918.323,VALID,0,VALID,88.302,VALID,209.618,VALID,22.0437,VALID,109,VALID,0,
2014-05-18, 07:57:04,VALID,918.308,VALID,0,VALID,86.8002,VALID,204.89,VALID,22.0225,VALID,109,VALID,0,
2014-05-18, 07:58:04,VALID,918.339,VALID,0,VALID,86.5715,VALID,201.667,VALID,22.0047,VALID,109,VALID,0,
2014-05-18, 07:59:04,VALID,918.34,VALID,0,VALID,87.3643,VALID,199.733,VALID,22.0225,VALID,109,VALID,0,
2014-05-18, 08:00:04,VALID,918.343,VALID,0,VALID,87.0747,VALID,199.088,VALID,22.0225,VALID,109,VALID,0,
2014-05-18, 08:01:04,VALID,918.354,VALID,0,VALID,87.4482,VALID,199.626,VALID,22.0827,VALID,109,VALID,0.335938,
2014-05-18, 08:02:04,VALID,918.364,VALID,0,VALID,87.2576,VALID,199.411,VALID,21.964,VALID,109,VALID,0.675781,
2014-05-18, 08:03:04,VALID,918.371,VALID,0,VALID,87.4177,VALID,198.981,VALID,21.8664,VALID,109,VALID,0.497266,
2014-05-18, 08:04:04,VALID,918.374,VALID,0,VALID,88.0581,VALID,197.907,VALID,21.7883,VALID,65,VALID,0.573438,
2014-05-18, 08:05:04,VALID,918.396,VALID,0,VALID,89.2092,VALID,196.725,VALID,21.8079,VALID,65,VALID,0.103906,
2014-05-18, 08:06:04,VALID,918.416,VALID,0,VALID,89.1787,VALID,194.898,VALID,21.8664,VALID,65,VALID,0.319141,
2014-05-18, 08:07:04,VALID,918.43,VALID,0,VALID,88.7899,VALID,193.394,VALID,21.8859,VALID,65,VALID,0.226563,
2014-05-18, 08:08:04,VALID,918.468,VALID,0,VALID,87.6922,VALID,192.32,VALID,21.8859,VALID,65,VALID,0.610937,
2014-05-18, 08:09:04,VALID,918.457,VALID,0,VALID,88.1496,VALID,190.923,VALID,21.8647,VALID,65,VALID,0.6875,
2014-05-18, 08:10:04,VALID,918.468,VALID,0,VALID,87.5244,VALID,190.601,VALID,21.8469,VALID,65,VALID,0.542969,
2014-05-18, 08:11:04,VALID,918.47,VALID,0,VALID,87.6769,VALID,190.708,VALID,21.8274,VALID,65,VALID,0.551562,
2014-05-18, 08:12:04,VALID,918.472,VALID,0,VALID,87.7074,VALID,190.278,VALID,21.7688,VALID,65,VALID,0.576172,
2014-05-18, 08:13:04,VALID,918.502,VALID,0,VALID,89.3541,VALID,189.419,VALID,21.7883,VALID,65,VALID,0.467578,
2014-05-18, 08:14:04,VALID,918.483,VALID,0,VALID,89.1406,VALID,190.815,VALID,21.7883,VALID,65,VALID,0.314063,
2014-05-18, 08:15:04,VALID,918.493,VALID,0,VALID,88.6222,VALID,194.039,VALID,21.7688,VALID,65,VALID,0.644922,
2014-05-18, 08:16:04,VALID,918.532,VALID,0,VALID,87.7455,VALID,195.006,VALID,21.7493,VALID,65,VALID,0.458594,
2014-05-18, 08:17:04,VALID,918.529,VALID,0,VALID,88.4697,VALID,196.08,VALID,21.7883,VALID,65,VALID,0.171875,
2014-05-18, 08:18:04,VALID,918.55,VALID,0,VALID,89.0644,VALID,197.047,VALID,21.8274,VALID,65,VALID,0.279687,
2014-05-18, 08:19:04,VALID,918.504,VALID,0,VALID,88.7594,VALID,204.675,VALID,21.8274,VALID,65,VALID,0.0414063,
2014-05-18, 08:20:04,VALID,918.519,VALID,0,VALID,88.9348,VALID,209.188,VALID,21.9249,VALID,66,VALID,0.0777344,
2014-05-18, 08:21:04,VALID,918.53,VALID,0,VALID,89.0034,VALID,213.808,VALID,22.0225,VALID,65,VALID,0.420312,
2014-05-18, 08:22:04,VALID,918.55,VALID,0,VALID,90.0097,VALID,210.262,VALID,22.1005,VALID,65,VALID,0.196875,
2014-05-18, 08:23:04,VALID,918.533,VALID,0,VALID,90.1469,VALID,196.617,VALID,22.1769,VALID,65,VALID,0,
2014-05-18, 08:24:04,VALID,918.568,VALID,0,VALID,90.0478,VALID,203.816,VALID,22.2957,VALID,65,VALID,0.528125,
2014-05-18, 08:25:04,VALID,918.589,VALID,0,VALID,89.3388,VALID,204.675,VALID,22.3525,VALID,65,VALID,0.814844,
2014-05-18, 08:26:04,VALID,918.615,VALID,0,VALID,89.1254,VALID,203.064,VALID,22.4696,VALID,65,VALID,0.628516,
2014-05-18, 08:27:04,VALID,918.616,VALID,0,VALID,88.3706,VALID,206.609,VALID,22.5494,VALID,65,VALID,0.396484,
2014-05-18, 08:28:04,VALID,918.638,VALID,0,VALID,88.0809,VALID,222.081,VALID,22.6062,VALID,65,VALID,0.114063,
2014-05-18, 08:29:04,VALID,918.659,VALID,0,VALID,86.48,VALID,249.801,VALID,22.6079,VALID,65,VALID,0.511328,
2014-05-18, 08:30:04,VALID,918.681,VALID,0,VALID,87.9132,VALID,360.465,VALID,22.5867,VALID,65,VALID,0.0636719,
2014-05-18, 08:31:04,VALID,918.681,VALID,0,VALID,87.4863,VALID,260.222,VALID,22.5867,VALID,65,VALID,0.330469,
2014-05-18, 08:32:04,VALID,918.69,VALID,0,VALID,87.3948,VALID,264.842,VALID,22.647,VALID,65,VALID,0.712891,
2014-05-18, 08:33:04,VALID,918.673,VALID,0,VALID,87.3872,VALID,249.801,VALID,22.5884,VALID,65,VALID,0.724219,
2014-05-18, 08:34:04,VALID,918.707,VALID,0,VALID,88.5993,VALID,249.371,VALID,22.5672,VALID,65,VALID,0.536719,
2014-05-18, 08:35:04,VALID,918.693,VALID,0,VALID,88.2105,VALID,251.842,VALID,22.5689,VALID,65,VALID,0.445703,
2014-05-18, 08:36:04,VALID,918.719,VALID,0,VALID,88.5765,VALID,252.057,VALID,22.647,VALID,2,VALID,0.922266,
2014-05-18, 08:37:04,VALID,918.735,VALID,0,VALID,87.5168,VALID,245.718,VALID,22.7055,VALID,19,VALID,1.35664,
2014-05-18, 08:38:04,VALID,918.754,VALID,0,VALID,85.8473,VALID,241.313,VALID,22.647,VALID,9,VALID,0.921094,
2014-05-18, 08:39:04,VALID,918.771,VALID,0,VALID,86.1827,VALID,235.404,VALID,22.5672,VALID,16,VALID,1.43555,
2014-05-18, 08:40:04,VALID,918.795,VALID,0,VALID,87.7836,VALID,230.891,VALID,22.5689,VALID,21,VALID,0.934375,
2014-05-18, 08:42:04,VALID,918.782,VALID,0,VALID,86.5029,VALID,226.164,VALID,22.5299,VALID,23,VALID,1.35391,
2014-05-18, 08:43:04,VALID,918.822,VALID,0,VALID,86.5029,VALID,224.552,VALID,22.4891,VALID,345,VALID,0.876953,
2014-05-18, 08:44:04,VALID,918.821,VALID,0,VALID,87.0442,VALID,224.552,VALID,22.5689,VALID,342,VALID,0.441016,
2014-05-18, 08:45:04,VALID,918.808,VALID,0,VALID,87.0899,VALID,226.916,VALID,22.6665,VALID,342,VALID,0.572266,
2014-05-18, 08:46:04,VALID,918.834,VALID,0,VALID,87.3415,VALID,228.527,VALID,22.725,VALID,28,VALID,0.628125,
2014-05-18, 08:47:04,VALID,918.847,VALID,0,VALID,86.015,VALID,231.858,VALID,22.725,VALID,28,VALID,0.541406,
2014-05-18, 08:48:04,VALID,918.857,VALID,0,VALID,86.541,VALID,230.676,VALID,22.725,VALID,25,VALID,0.591016,
2014-05-18, 08:49:04,VALID,918.874,VALID,0,VALID,86.7392,VALID,233.685,VALID,22.7428,VALID,1,VALID,0.409766,
2014-05-18, 08:50:04,VALID,918.873,VALID,0,VALID,86.5715,VALID,232.825,VALID,22.725,VALID,274,VALID,0.499609,
2014-05-18, 08:51:04,VALID,918.863,VALID,0,VALID,86.48,VALID,236.048,VALID,22.6452,VALID,275,VALID,0.0195313,
2014-05-18, 08:52:04,VALID,918.867,VALID,0,VALID,85.6872,VALID,239.379,VALID,22.5884,VALID,275,VALID,0.829687,
2014-05-18, 08:53:04,VALID,918.877,VALID,0,VALID,87.6159,VALID,239.809,VALID,22.6274,VALID,276,VALID,0.398438,
2014-05-18, 08:54:04,VALID,918.883,VALID,0,VALID,87.6617,VALID,240.668,VALID,22.725,VALID,332,VALID,0.329688,
2014-05-18, 08:55:04,VALID,918.909,VALID,0,VALID,85.4509,VALID,245.288,VALID,22.7818,VALID,309,VALID,0.567578,
2014-05-18, 08:56:04,VALID,918.906,VALID,0,VALID,84.3074,VALID,250.338,VALID,22.9007,VALID,357,VALID,0.416406,
2014-05-18, 08:57:04,VALID,918.931,VALID,0,VALID,84.6123,VALID,253.669,VALID,23.0373,VALID,3,VALID,0.655859,
2014-05-18, 08:58:04,VALID,918.921,VALID,0,VALID,83.8804,VALID,254.743,VALID,23.1136,VALID,359,VALID,0.794531,
2014-05-18, 08:59:04,VALID,918.952,VALID,0,VALID,83.3925,VALID,257.751,VALID,23.1935,VALID,354,VALID,0.90625,
2014-05-18, 09:00:04,VALID,918.936,VALID,0,VALID,83.0038,VALID,245.073,VALID,23.2325,VALID,7,VALID,0.695703,
2014-05-18, 09:01:04,VALID,918.976,VALID,0,VALID,84.254,VALID,239.701,VALID,23.2715,VALID,26,VALID,0.450781,
2014-05-18, 09:02:04,VALID,918.978,VALID,0,VALID,84.3607,VALID,256.14,VALID,23.252,VALID,133,VALID,0.626172,
2014-05-18, 09:03:04,VALID,919.015,VALID,0,VALID,84.1549,VALID,260.545,VALID,23.2893,VALID,140,VALID,0.377344,
2014-05-18, 09:04:04,VALID,918.984,VALID,0,VALID,83.9338,VALID,281.603,VALID,23.3869,VALID,30,VALID,1.40234,
2014-05-18, 09:05:04,VALID,918.995,VALID,0,VALID,83.2477,VALID,299.976,VALID,23.4259,VALID,351,VALID,1.29648,
2014-05-18, 09:06:04,VALID,918.976,VALID,0,VALID,82.8208,VALID,323.076,VALID,23.3478,VALID,338,VALID,0.863672,
2014-05-18, 09:07:04,VALID,918.946,VALID,0,VALID,82.9351,VALID,344.349,VALID,23.3088,VALID,359,VALID,1.19805,
2014-05-18, 09:08:04,VALID,918.962,VALID,0,VALID,84.0482,VALID,359.391,VALID,23.3478,VALID,19,VALID,1.10703,
2014-05-18, 09:09:04,VALID,918.975,VALID,0,VALID,81.5629,VALID,357.134,VALID,23.3283,VALID,359,VALID,1.78281,
2014-05-18, 09:10:04,VALID,918.975,VALID,0,VALID,82.6683,VALID,308.249,VALID,23.3283,VALID,10,VALID,2.19609,
2014-05-18, 09:11:04,VALID,918.973,VALID,0,VALID,82.0203,VALID,320.497,VALID,23.1917,VALID,16,VALID,1.81094,
2014-05-18, 09:12:04,VALID,918.999,VALID,0,VALID,82.1576,VALID,298.257,VALID,23.1349,VALID,4,VALID,1.20781,
2014-05-18, 09:13:04,VALID,919.023,VALID,0,VALID,82.5692,VALID,249.693,VALID,23.1349,VALID,9,VALID,1.95234,
2014-05-18, 09:14:04,VALID,918.986,VALID,0,VALID,83.8728,VALID,266.991,VALID,23.1331,VALID,349,VALID,0.272656,
2014-05-18, 09:15:04,VALID,919.023,VALID,0,VALID,83.4993,VALID,397.532,VALID,23.2112,VALID,357,VALID,0.923047,
2014-05-18, 09:16:04,VALID,919.017,VALID,0,VALID,82.615,VALID,464.576,VALID,23.2698,VALID,328,VALID,1.0793,
2014-05-18, 09:17:04,VALID,919.016,VALID,0,VALID,82.9046,VALID,521.519,VALID,23.3301,VALID,324,VALID,0.451562,
2014-05-18, 09:18:04,VALID,918.99,VALID,0,VALID,83.789,VALID,512.065,VALID,23.504,VALID,359,VALID,1.39844,
2014-05-18, 09:19:04,VALID,918.99,VALID,0,VALID,79.8019,VALID,349.076,VALID,23.6211,VALID,323,VALID,1.00742,
2014-05-18, 09:20:04,VALID,918.999,VALID,0,VALID,81.2351,VALID,410.533,VALID,23.6388,VALID,353,VALID,0.591797,
2014-05-18, 09:21:04,VALID,918.995,VALID,0,VALID,82.554,VALID,391.73,VALID,23.7773,VALID,19,VALID,1.57773,
2014-05-18, 09:22:04,VALID,918.994,VALID,0,VALID,79.7943,VALID,404.946,VALID,23.7968,VALID,308,VALID,0.940234,
2014-05-18, 09:23:04,VALID,918.975,VALID,0,VALID,80.9378,VALID,404.731,VALID,23.5235,VALID,325,VALID,1.31758,
2014-05-18, 09:24:04,VALID,918.979,VALID,0,VALID,82.4091,VALID,465.972,VALID,23.465,VALID,349,VALID,0.766797,
2014-05-18, 09:25:04,VALID,918.912,VALID,0,VALID,81.967,VALID,453.402,VALID,23.6211,VALID,6,VALID,1.06523,
2014-05-18, 09:26:04,VALID,918.963,VALID,0,VALID,80.9149,VALID,598.447,VALID,23.8163,VALID,196,VALID,0.55625,
2014-05-18, 09:27:04,VALID,918.936,VALID,0,VALID,79.8172,VALID,614.026,VALID,23.7578,VALID,305,VALID,1.56719,
2014-05-18, 09:28:04,VALID,918.952,VALID,0,VALID,81.0369,VALID,623.374,VALID,23.7968,VALID,330,VALID,0.986328,
2014-05-18, 09:29:04,VALID,918.935,VALID,0,VALID,79.375,VALID,561.81,VALID,23.9335,VALID,341,VALID,0.940625,
2014-05-18, 09:30:04,VALID,918.939,VALID,0,VALID,78.3535,VALID,522.164,VALID,23.953,VALID,301,VALID,1.24102,
2014-05-18, 09:31:04,VALID,918.937,VALID,0,VALID,79.7257,VALID,437.715,VALID,24.0506,VALID,13,VALID,1.41211,
2014-05-18, 09:32:04,VALID,918.923,VALID,0,VALID,79.9391,VALID,393.449,VALID,24.0896,VALID,24,VALID,1.23828,
2014-05-18, 09:33:04,VALID,918.955,VALID,0,VALID,79.4131,VALID,370.027,VALID,24.0488,VALID,356,VALID,1.0168,
2014-05-18, 09:34:04,VALID,918.992,VALID,0,VALID,81.1665,VALID,332.53,VALID,24.0683,VALID,38,VALID,1.56758,
2014-05-18, 09:35:04,VALID,918.965,VALID,0,VALID,79.5503,VALID,406.665,VALID,24.1287,VALID,54,VALID,1.63867,
2014-05-18, 09:36:04,VALID,918.989,VALID,0,VALID,81.4638,VALID,295.248,VALID,24.1073,VALID,5,VALID,1.51797,
2014-05-18, 09:37:04,VALID,918.966,VALID,0,VALID,81.0979,VALID,325.869,VALID,24.0097,VALID,360,VALID,1.25195,
2014-05-18, 09:38:04,VALID,918.972,VALID,0,VALID,80.6786,VALID,287.62,VALID,23.8749,VALID,6,VALID,1.19336,
2014-05-18, 09:39:04,VALID,919.003,VALID,0,VALID,82.4777,VALID,253.024,VALID,23.7755,VALID,29,VALID,0.816797,
2014-05-18, 09:40:04,VALID,918.948,VALID,0,VALID,81.0903,VALID,242.172,VALID,23.7968,VALID,359,VALID,1.75039,
2014-05-18, 09:41:04,VALID,918.985,VALID,0,VALID,81.4943,VALID,246.792,VALID,23.6992,VALID,14,VALID,1.14727,
2014-05-18, 09:42:04,VALID,919,VALID,0,VALID,82.0356,VALID,245.933,VALID,23.6211,VALID,15,VALID,1.08516,
2014-05-18, 09:43:04,VALID,918.978,VALID,0,VALID,81.075,VALID,243.569,VALID,23.5821,VALID,2,VALID,1.65859,
2014-05-18, 09:44:04,VALID,918.969,VALID,0,VALID,81.5019,VALID,241.205,VALID,23.5998,VALID,356,VALID,1.31875,
2014-05-18, 09:45:04,VALID,918.963,VALID,0,VALID,81.2275,VALID,238.304,VALID,23.6602,VALID,25,VALID,1.00703,
2014-05-18, 09:46:04,VALID,918.974,VALID,0,VALID,81.7535,VALID,227.238,VALID,23.6779,VALID,27,VALID,0.777344,
2014-05-18, 09:47:04,VALID,918.977,VALID,0,VALID,80.5643,VALID,219.502,VALID,23.6779,VALID,329,VALID,0.777344,
2014-05-18, 09:48:04,VALID,918.968,VALID,0,VALID,81.197,VALID,218.75,VALID,23.6193,VALID,26,VALID,1.08125,
2014-05-18, 09:49:04,VALID,918.998,VALID,0,VALID,80.9149,VALID,211.659,VALID,23.5998,VALID,8,VALID,0.667188,
2014-05-18, 09:50:04,VALID,918.997,VALID,0,VALID,81.7611,VALID,203.708,VALID,23.5643,VALID,2,VALID,0.622656,
2014-05-18, 09:51:04,VALID,918.973,VALID,0,VALID,83.2706,VALID,199.948,VALID,23.5821,VALID,3,VALID,0.525781,
2014-05-18, 09:52:04,VALID,918.969,VALID,0,VALID,81.2046,VALID,205.535,VALID,23.6034,VALID,17,VALID,1.33125,
2014-05-18, 09:53:04,VALID,918.945,VALID,0,VALID,81.4028,VALID,212.626,VALID,23.4863,VALID,10,VALID,0.777734,
2014-05-18, 09:54:04,VALID,918.977,VALID,0,VALID,82.958,VALID,223.155,VALID,23.3656,VALID,10,VALID,0.640625,
2014-05-18, 09:55:04,VALID,918.966,VALID,0,VALID,82.4396,VALID,220.147,VALID,23.3887,VALID,10,VALID,0.519922,
2014-05-18, 09:56:04,VALID,918.955,VALID,0,VALID,83.4535,VALID,215.42,VALID,23.3869,VALID,12,VALID,0.671094,
2014-05-18, 09:57:04,VALID,918.945,VALID,0,VALID,83.2629,VALID,214.238,VALID,23.465,VALID,14,VALID,1.34531,
2014-05-18, 09:58:04,VALID,918.957,VALID,0,VALID,82.4549,VALID,219.287,VALID,23.4472,VALID,27,VALID,0.8125,
2014-05-18, 09:59:04,VALID,918.966,VALID,0,VALID,83.8576,VALID,237.23,VALID,23.3478,VALID,31,VALID,1.09609,
2014-05-18, 10:00:04,VALID,918.984,VALID,0,VALID,83.7737,VALID,265.272,VALID,23.4454,VALID,21,VALID,0.461719,
2014-05-18, 10:01:04,VALID,918.979,VALID,0,VALID,83.2401,VALID,270.429,VALID,23.465,VALID,295,VALID,0.601563,
2014-05-18, 10:02:04,VALID,919.015,VALID,0,VALID,83.3316,VALID,284.719,VALID,23.5235,VALID,301,VALID,0.539453,
2014-05-18, 10:03:04,VALID,918.996,VALID,0,VALID,83.7966,VALID,403.979,VALID,23.6424,VALID,301,VALID,0.514844,
2014-05-18, 10:04:04,VALID,918.983,VALID,0,VALID,81.9898,VALID,374.432,VALID,23.756,VALID,301,VALID,0.418359,
2014-05-18, 10:05:04,VALID,918.995,VALID,0,VALID,81.7078,VALID,318.456,VALID,23.8554,VALID,301,VALID,0.600781,
2014-05-18, 10:06:04,VALID,918.976,VALID,0,VALID,81.5629,VALID,334.464,VALID,23.953,VALID,301,VALID,0.485547,
2014-05-18, 10:07:04,VALID,919.022,VALID,0,VALID,80.8311,VALID,335.324,VALID,23.9335,VALID,38,VALID,1.80508,
2014-05-18, 10:08:04,VALID,919,VALID,0,VALID,80.2288,VALID,376.474,VALID,23.9725,VALID,51,VALID,1.00508,
2014-05-18, 10:09:04,VALID,919.001,VALID,0,VALID,78.7194,VALID,363.796,VALID,23.9353,VALID,335,VALID,0.848047,
2014-05-18, 10:10:04,VALID,919.012,VALID,0,VALID,80.0764,VALID,322.861,VALID,23.8554,VALID,7,VALID,1.13477,